Weather Roundup
Issued by NWS Springfield, MO

Home | Current Version | Previous Version | Text Only | Print | Product List | Glossary On
Versions: 1 2 3 4 5 6 7 8 9 10 11 12 13 14 15 16 17 18 19 20 21 22 23 24 25 26 27 28 29 30 31 32 33 34 35 36 37 38 39 40 41 42 43 44 45 46 47 48 49 50
000
NZUS99 KSGF 290607
HRRSGF

HOURLY WEATHER
NATIONAL WEATHER SERVICE SPRINGFIELD MO
100 AM CDT WED JUL 29 2015

......SGF CWA......

CITY           SKY/WX    TMP DP  RH WIND       PRES   REMARKS
SPRINGFIELD    CLEAR     79  74  84 SE5       30.02R
6HR MIN TEMP:  79; 6HR MAX TEMP:  90;

JOPLIN         CLEAR     79  74  84 S8        30.00S
6HR MIN TEMP:  79; 6HR MAX TEMP:  91;

WEST PLAINS    CLEAR     77  74  90 CALM      30.05S
6HR MIN TEMP:  77; 6HR MAX TEMP:  89;

ROLLA          CLEAR     76  74  93 S7        29.99F
6HR MIN TEMP:  75; 6HR MAX TEMP:  88;

OSAGE BEACH    CLEAR     81  75  83 S3        29.99S
BRANSON        PTCLDY    81  73  78 CALM      30.04S

......SURROUNDING SGF CWA......

CITY           SKY/WX    TMP DP  RH WIND       PRES   REMARKS
CHANUTE        CLEAR     76  72  87 S6        29.97S
PARSONS        CLEAR     75  73  93 CALM      29.98S
COFFEYVILLE    CLEAR     76  73  91 S3        29.97R
EMPORIA        MOCLDY    79  72  79 W3        29.99R
GROVE OK       CLEAR     79  79 100 CALM      30.01R
ROGERS AR      CLEAR     80  74  81 S5        30.04R
SILOAM SPRINGS CLEAR     79  70  73 CALM      30.02R
HARRISON AR    CLEAR     75  74  96 CALM      30.04R
NEAR YELLVILLE CLEAR     79  75  89 CALM      30.00R

......KANSAS AND MISSOURI......

CITY           SKY/WX    TMP DP  RH WIND       PRES   REMARKS
KANSAS CTY INT CLOUDY    83  73  72 W7        29.97R
DOWNTOWN KC    CLOUDY    87  72  60 SW8       29.94R HX  93
COLUMBIA       CLEAR     79  77  94 S3        29.97S
SEDALIA        CLEAR     80  74  81 S5        29.98S
ST JOSEPH      TSTM      77  73  87 N15       30.00R
ST LOUIS       PTCLDY    87  77  72 S8        29.95F HX  99
SPIRIT OF STL  CLEAR     82  79  90 S5        29.93F HX  92
KIRKSVILLE     CLOUDY    77  66  68 NW10      30.01R
WICHITA        PTCLDY    80  68  66 S7        29.97R
TOPEKA         CLOUDY    81  76  84 N16       29.98R
OLATHE         CLEAR     81  72  74 SW6       29.97R

......TENNESSEE......

CITY           SKY/WX    TMP DP  RH WIND       PRES   REMARKS
MEMPHIS        CLEAR     84  75  74 S3        29.98F HX  92
NASHVILLE      CLOUDY    75  75 100 CALM      30.01R

......ARKANSAS.......

CITY           SKY/WX    TMP DP  RH WIND       PRES   REMARKS
FAYETTEVILLE   CLEAR     76  73  91 S3        30.04R
FT SMITH       CLEAR     82  71  69 CALM      29.98R
LITTLE ROCK    CLEAR     82  75  79 CALM      29.98S

......OKLAHOMA.......

CITY           SKY/WX    TMP DP  RH WIND       PRES   REMARKS
TULSA          CLEAR     85  70  60 S8        29.96S
PONCA CITY     CLEAR     84  68  58 S8        29.96R
MCALESTER      PTCLDY    76  68  76 CALM      30.00R
OKLAHOMA CITY  PTCLDY    73  68  84 SE6       30.00R

......IOWA............

CITY           SKY/WX    TMP DP  RH WIND       PRES   REMARKS
DES MOINES     LGT RAIN  72  69  90 CALM      30.00R
QUAD CITIES    CLOUDY    77  74  90 CALM      29.91F

......ILLINOIS........

CITY           SKY/WX    TMP DP  RH WIND       PRES   REMARKS
QUINCY         PTCLDY    80  78  94 W12G17    29.96R
CHICAGO        CLOUDY    79  73  82 CALM      29.92F




USA.gov is the U.S. government's official web portal to all federal, state and local government web resources and services.